Year,Month,Day,Hour,Minute,Value (Times are PST for temperature in C)
2016,04,20,00,00,13.80
2016,04,20,00,01,13.80
2016,04,20,00,02,13.80
2016,04,20,00,03,13.80
2016,04,20,00,04,13.80
2016,04,20,00,05,13.80
2016,04,20,00,06,13.80
2016,04,20,00,07,13.80
2016,04,20,00,08,13.80
2016,04,20,00,09,13.80
2016,04,20,00,10,13.80
2016,04,20,00,11,13.70
2016,04,20,00,12,13.70
2016,04,20,00,13,13.70
2016,04,20,00,14,13.70
2016,04,20,00,15,13.70
2016,04,20,00,16,13.70
2016,04,20,00,17,13.60
2016,04,20,00,18,13.60
2016,04,20,00,19,13.60
2016,04,20,00,20,13.60
2016,04,20,00,21,13.50
2016,04,20,00,22,13.50
2016,04,20,00,23,13.40
2016,04,20,00,24,13.40
2016,04,20,00,25,13.40
2016,04,20,00,26,13.40
2016,04,20,00,27,13.40
2016,04,20,00,28,13.40
2016,04,20,00,29,13.30
2016,04,20,00,30,13.30
2016,04,20,00,31,13.30
2016,04,20,00,32,13.30
2016,04,20,00,33,13.30
2016,04,20,00,34,13.30
2016,04,20,00,35,13.30
2016,04,20,00,36,13.30
2016,04,20,00,37,13.30
2016,04,20,00,38,13.30
2016,04,20,00,39,13.30
2016,04,20,00,40,13.30
2016,04,20,00,41,13.30
2016,04,20,00,42,13.30
2016,04,20,00,43,13.30
2016,04,20,00,44,13.20
2016,04,20,00,45,13.20
2016,04,20,00,46,13.20
2016,04,20,00,47,13.20
2016,04,20,00,48,13.20
2016,04,20,00,49,13.20
2016,04,20,00,50,13.20
2016,04,20,00,51,13.10
2016,04,20,00,52,13.10
2016,04,20,00,53,13.10
2016,04,20,00,54,13.10
2016,04,20,00,55,13.10
2016,04,20,00,56,13.00
2016,04,20,00,57,13.00
2016,04,20,00,58,13.00
2016,04,20,00,59,13.00
2016,04,20,01,00,12.90
2016,04,20,01,01,12.90
2016,04,20,01,02,12.90
2016,04,20,01,03,12.90
2016,04,20,01,04,12.90
2016,04,20,01,05,12.90
2016,04,20,01,06,12.90
2016,04,20,01,07,12.80
2016,04,20,01,08,12.80
2016,04,20,01,09,12.80
2016,04,20,01,10,12.80
2016,04,20,01,11,12.80
2016,04,20,01,12,12.80
2016,04,20,01,13,12.80
2016,04,20,01,14,12.80
2016,04,20,01,15,12.80
2016,04,20,01,16,12.80
2016,04,20,01,17,12.80
2016,04,20,01,18,12.80
2016,04,20,01,19,12.80
2016,04,20,01,20,12.70
2016,04,20,01,21,12.70
2016,04,20,01,22,12.70
2016,04,20,01,23,12.70
2016,04,20,01,24,12.70
2016,04,20,01,25,12.70
2016,04,20,01,26,12.60
2016,04,20,01,27,12.60
2016,04,20,01,28,12.60
2016,04,20,01,29,12.60
2016,04,20,01,30,12.50
2016,04,20,01,31,12.50
2016,04,20,01,32,12.50
2016,04,20,01,33,12.40
2016,04,20,01,34,12.40
2016,04,20,01,35,12.40
2016,04,20,01,36,12.40
2016,04,20,01,37,12.40
2016,04,20,01,38,12.40
2016,04,20,01,39,12.30
2016,04,20,01,40,12.30
2016,04,20,01,41,12.30
2016,04,20,01,42,12.30
2016,04,20,01,43,12.30
2016,04,20,01,44,12.30
2016,04,20,01,45,12.20
2016,04,20,01,46,12.20
2016,04,20,01,47,12.20
2016,04,20,01,48,12.20
2016,04,20,01,49,12.20
2016,04,20,01,50,12.20
2016,04,20,01,51,12.20
2016,04,20,01,52,12.20
2016,04,20,01,53,12.20
2016,04,20,01,54,12.20
2016,04,20,01,55,12.20
2016,04,20,01,56,12.20
2016,04,20,01,57,12.20
2016,04,20,01,58,12.20
2016,04,20,01,59,12.20
2016,04,20,02,00,12.20
2016,04,20,02,01,12.10
2016,04,20,02,02,12.10
2016,04,20,02,03,12.20
2016,04,20,02,04,12.10
2016,04,20,02,05,12.20
2016,04,20,02,06,12.20
2016,04,20,02,07,12.20
2016,04,20,02,08,12.20
2016,04,20,02,09,12.20
2016,04,20,02,10,12.20
2016,04,20,02,11,12.20
2016,04,20,02,12,12.10
2016,04,20,02,13,12.10
2016,04,20,02,14,12.10
2016,04,20,02,15,12.10
2016,04,20,02,16,12.10
2016,04,20,02,17,12.10
2016,04,20,02,18,12.00
2016,04,20,02,19,12.00
2016,04,20,02,20,12.00
2016,04,20,02,21,12.00
2016,04,20,02,22,11.90
2016,04,20,02,23,11.90
2016,04,20,02,24,11.90
2016,04,20,02,25,11.90
2016,04,20,02,26,11.90
2016,04,20,02,27,11.90
2016,04,20,02,28,11.90
2016,04,20,02,29,11.80
2016,04,20,02,30,11.80
2016,04,20,02,31,11.80
2016,04,20,02,32,11.80
2016,04,20,02,33,11.80
2016,04,20,02,34,11.80
2016,04,20,02,35,11.80
2016,04,20,02,36,11.80
2016,04,20,02,37,11.80
2016,04,20,02,38,11.80
2016,04,20,02,39,11.80
2016,04,20,02,40,11.80
2016,04,20,02,41,11.80
2016,04,20,02,42,11.80
2016,04,20,02,43,11.80
2016,04,20,02,44,11.80
2016,04,20,02,45,11.80
2016,04,20,02,46,11.80
2016,04,20,02,47,11.80
2016,04,20,02,48,11.90
2016,04,20,02,49,11.90
2016,04,20,02,50,11.90
2016,04,20,02,51,11.90
2016,04,20,02,52,11.90
2016,04,20,02,53,11.90
2016,04,20,02,54,11.90
2016,04,20,02,55,11.90
2016,04,20,02,56,11.90
2016,04,20,02,57,11.90
2016,04,20,02,58,11.90
2016,04,20,02,59,11.90
2016,04,20,03,00,11.80
2016,04,20,03,01,11.80
2016,04,20,03,02,11.80
2016,04,20,03,06,11.80
2016,04,20,03,07,11.80
2016,04,20,03,08,11.80
2016,04,20,03,09,11.80
2016,04,20,03,10,11.80
2016,04,20,03,11,11.80
2016,04,20,03,12,11.80
2016,04,20,03,13,11.80
2016,04,20,03,14,11.80
2016,04,20,03,15,11.80
2016,04,20,03,16,11.80
2016,04,20,03,17,11.80
2016,04,20,03,18,11.80
2016,04,20,03,19,11.80
2016,04,20,03,20,11.80
2016,04,20,03,21,11.80
2016,04,20,03,22,11.80
2016,04,20,03,23,11.80
2016,04,20,03,24,11.70
2016,04,20,03,25,11.70
2016,04,20,03,26,11.70
2016,04,20,03,27,11.70
2016,04,20,03,28,11.70
2016,04,20,03,29,11.70
2016,04,20,03,30,11.70
2016,04,20,03,31,11.70
2016,04,20,03,32,11.70
2016,04,20,03,33,11.70
2016,04,20,03,34,11.70
2016,04,20,03,35,11.60
2016,04,20,03,36,11.60
2016,04,20,03,37,11.60
2016,04,20,03,38,11.60
2016,04,20,03,39,11.60
2016,04,20,03,40,11.60
2016,04,20,03,41,11.60
2016,04,20,03,42,11.60
2016,04,20,03,43,11.60
2016,04,20,03,44,11.60
2016,04,20,03,45,11.60
2016,04,20,03,46,11.60
2016,04,20,03,47,11.60
2016,04,20,03,48,11.60
2016,04,20,03,49,11.60
2016,04,20,03,50,11.60
2016,04,20,03,51,11.60
2016,04,20,03,52,11.60
2016,04,20,03,53,11.60
2016,04,20,03,54,11.60
2016,04,20,03,55,11.50
2016,04,20,03,56,11.50
2016,04,20,03,57,11.50
2016,04,20,03,58,11.50
2016,04,20,03,59,11.40
2016,04,20,04,00,11.40
2016,04,20,04,01,11.40
2016,04,20,04,02,11.40
2016,04,20,04,03,11.40
2016,04,20,04,04,11.40
2016,04,20,04,05,11.30
2016,04,20,04,06,11.30
2016,04,20,04,07,11.30
2016,04,20,04,08,11.30
2016,04,20,04,09,11.30
2016,04,20,04,10,11.30
2016,04,20,04,11,11.30
2016,04,20,04,12,11.30
2016,04,20,04,13,11.30
2016,04,20,04,14,11.30
2016,04,20,04,15,11.30
2016,04,20,04,16,11.20
2016,04,20,04,17,11.20
2016,04,20,04,18,11.20
2016,04,20,04,19,11.20
2016,04,20,04,20,11.20
2016,04,20,04,21,11.20
2016,04,20,04,22,11.20
2016,04,20,04,23,11.20
2016,04,20,04,24,11.20
2016,04,20,04,25,11.20
2016,04,20,04,26,11.20
2016,04,20,04,27,11.20
2016,04,20,04,28,11.20
2016,04,20,04,29,11.20
2016,04,20,04,30,11.20
2016,04,20,04,31,11.20
2016,04,20,04,32,11.10
2016,04,20,04,33,11.10
2016,04,20,04,34,11.10
2016,04,20,04,35,11.10
2016,04,20,04,36,11.10
2016,04,20,04,37,11.10
2016,04,20,04,38,11.10
2016,04,20,04,39,11.10
2016,04,20,04,40,11.10
2016,04,20,04,41,11.10
2016,04,20,04,42,11.10
2016,04,20,04,43,11.10
2016,04,20,04,44,11.10
2016,04,20,04,45,11.10
2016,04,20,04,46,11.10
2016,04,20,04,47,11.10
2016,04,20,04,48,11.10
2016,04,20,04,49,11.10
2016,04,20,04,50,11.10
2016,04,20,04,51,11.00
2016,04,20,04,52,11.00
2016,04,20,04,53,11.00
2016,04,20,04,54,11.00
2016,04,20,04,55,10.90
2016,04,20,04,56,10.90
2016,04,20,04,57,10.90
2016,04,20,04,58,10.90
2016,04,20,04,59,10.90
2016,04,20,05,00,10.90
2016,04,20,05,01,10.90
2016,04,20,05,02,10.90
2016,04,20,05,03,10.90
2016,04,20,05,04,10.90
2016,04,20,05,05,10.90
2016,04,20,05,06,10.80
2016,04,20,05,07,10.80
2016,04,20,05,08,10.80
2016,04,20,05,09,10.80
2016,04,20,05,10,10.80
2016,04,20,05,11,10.80
2016,04,20,05,12,10.80
2016,04,20,05,13,10.80
2016,04,20,05,14,10.80
2016,04,20,05,15,10.80
2016,04,20,05,16,10.80
2016,04,20,05,17,10.80
2016,04,20,05,18,10.80
2016,04,20,05,19,10.80
2016,04,20,05,20,10.80
2016,04,20,05,21,10.80
2016,04,20,05,22,10.80
2016,04,20,05,23,10.80
2016,04,20,05,24,10.80
2016,04,20,05,25,10.80
2016,04,20,05,26,10.80
2016,04,20,05,27,10.80
2016,04,20,05,28,10.80
2016,04,20,05,29,10.80
2016,04,20,05,30,10.80
2016,04,20,05,31,10.80
2016,04,20,05,32,10.80
2016,04,20,05,33,10.80
2016,04,20,05,34,10.80
2016,04,20,05,35,10.70
2016,04,20,05,36,10.70
2016,04,20,05,37,10.70
2016,04,20,05,38,10.70
2016,04,20,05,39,10.70
2016,04,20,05,40,10.70
2016,04,20,05,41,10.70
2016,04,20,05,42,10.70
2016,04,20,05,43,10.70
2016,04,20,05,44,10.70
2016,04,20,05,45,10.70
2016,04,20,05,46,10.70
2016,04,20,05,47,10.70
2016,04,20,05,48,10.70
2016,04,20,05,49,10.60
2016,04,20,05,50,10.60
2016,04,20,05,51,10.60
2016,04,20,05,52,10.60
2016,04,20,05,53,10.60
2016,04,20,05,54,10.60
2016,04,20,05,55,10.60
2016,04,20,05,56,10.60
2016,04,20,05,57,10.60
2016,04,20,05,58,10.60
2016,04,20,05,59,10.60
2016,04,20,06,00,10.60
2016,04,20,06,01,10.60
2016,04,20,06,02,10.50
2016,04,20,06,03,10.50
2016,04,20,06,04,10.50
2016,04,20,06,05,10.50
2016,04,20,06,06,10.50
2016,04,20,06,07,10.50
2016,04,20,06,08,10.40
2016,04,20,06,09,10.40
2016,04,20,06,10,10.40
2016,04,20,06,11,10.40
2016,04,20,06,12,10.40
2016,04,20,06,13,10.40
2016,04,20,06,14,10.40
2016,04,20,06,15,10.40
2016,04,20,06,16,10.30
2016,04,20,06,17,10.30
2016,04,20,06,18,10.30
2016,04,20,06,19,10.30
2016,04,20,06,20,10.30
2016,04,20,06,21,10.30
2016,04,20,06,22,10.30
2016,04,20,06,23,10.30
2016,04,20,06,24,10.30
2016,04,20,06,25,10.30
2016,04,20,06,26,10.30
2016,04,20,06,27,10.30
2016,04,20,06,28,10.30
2016,04,20,06,29,10.30
2016,04,20,06,30,10.30
2016,04,20,06,31,10.30
2016,04,20,06,32,10.30
2016,04,20,06,33,10.30
2016,04,20,06,34,10.30
2016,04,20,06,35,10.30
2016,04,20,06,36,10.30
2016,04,20,06,37,10.30
2016,04,20,06,38,10.20
2016,04,20,06,39,10.20
2016,04,20,06,40,10.20
2016,04,20,06,41,10.20
2016,04,20,06,42,10.20
2016,04,20,06,43,10.20
2016,04,20,06,44,10.20
2016,04,20,06,45,10.20
2016,04,20,06,46,10.20
2016,04,20,06,47,10.20
2016,04,20,06,48,10.20
2016,04,20,06,49,10.20
2016,04,20,06,50,10.20
2016,04,20,06,51,10.10
2016,04,20,06,52,10.10
2016,04,20,06,53,10.10
2016,04,20,06,54,10.10
2016,04,20,06,55,10.10
2016,04,20,06,56,10.10
2016,04,20,06,57,10.10
2016,04,20,06,58,10.10
2016,04,20,06,59,10.10
2016,04,20,07,00,10.10
2016,04,20,07,01,10.10
2016,04,20,07,02,10.10
2016,04,20,07,03,10.20
2016,04,20,07,04,10.20
2016,04,20,07,05,10.20
2016,04,20,07,06,10.20
2016,04,20,07,07,10.20
2016,04,20,07,08,10.20
2016,04,20,07,09,10.20
2016,04,20,07,10,10.20
2016,04,20,07,11,10.20
2016,04,20,07,12,10.20
2016,04,20,07,13,10.20
2016,04,20,07,14,10.20
2016,04,20,07,15,10.30
2016,04,20,07,16,10.30
2016,04,20,07,17,10.30
2016,04,20,07,18,10.30
2016,04,20,07,19,10.30
2016,04,20,07,20,10.30
2016,04,20,07,21,10.40
2016,04,20,07,22,10.40
2016,04,20,07,23,10.40
2016,04,20,07,24,10.40
2016,04,20,07,25,10.40
2016,04,20,07,26,10.50
2016,04,20,07,27,10.50
2016,04,20,07,28,10.50
2016,04,20,07,29,10.50
2016,04,20,07,30,10.50
2016,04,20,07,31,10.60
2016,04,20,07,32,10.60
2016,04,20,07,33,10.60
2016,04,20,07,34,10.60
2016,04,20,07,35,10.60
2016,04,20,07,36,10.70
2016,04,20,07,37,10.70
2016,04,20,07,38,10.70
2016,04,20,07,39,10.70
2016,04,20,07,40,10.80
2016,04,20,07,41,10.80
2016,04,20,07,42,10.80
2016,04,20,07,43,10.80
2016,04,20,07,44,10.80
2016,04,20,07,45,10.90
2016,04,20,07,46,10.90
2016,04,20,07,47,11.00
2016,04,20,07,48,11.00
2016,04,20,07,49,11.10
2016,04,20,07,50,11.10
2016,04,20,07,51,11.20
2016,04,20,07,52,11.30
2016,04,20,07,53,11.40
2016,04,20,07,54,11.50
2016,04,20,07,55,11.60
2016,04,20,07,56,11.60
2016,04,20,07,57,11.70
2016,04,20,07,58,11.80
2016,04,20,07,59,11.90
2016,04,20,08,00,12.00
2016,04,20,08,01,12.10
2016,04,20,08,02,12.20
2016,04,20,08,03,12.30
2016,04,20,08,04,12.40
2016,04,20,08,05,12.50
2016,04,20,08,06,12.60
2016,04,20,08,07,12.60
2016,04,20,08,08,12.70
2016,04,20,08,09,12.80
2016,04,20,08,10,12.90
2016,04,20,08,11,13.00
2016,04,20,08,12,13.10
2016,04,20,08,13,13.10
2016,04,20,08,14,13.20
2016,04,20,08,15,13.30
2016,04,20,08,16,13.40
2016,04,20,08,17,13.50
2016,04,20,08,18,13.60
2016,04,20,08,19,13.70
2016,04,20,08,20,13.80
2016,04,20,08,21,13.80
2016,04,20,08,22,13.90
2016,04,20,08,23,14.00
2016,04,20,08,24,14.20
2016,04,20,08,25,14.30
2016,04,20,08,26,14.40
2016,04,20,08,27,14.50
2016,04,20,08,28,14.60
2016,04,20,08,29,14.70
2016,04,20,08,30,14.90
2016,04,20,08,31,15.00
2016,04,20,08,32,15.00
2016,04,20,08,33,15.00
2016,04,20,08,34,15.00
2016,04,20,08,35,15.10
2016,04,20,08,36,15.30
2016,04,20,08,37,15.40
2016,04,20,08,38,15.50
2016,04,20,08,39,15.70
2016,04,20,08,40,15.80
2016,04,20,08,41,15.90
2016,04,20,08,42,16.00
2016,04,20,08,43,16.10
2016,04,20,08,44,16.30
2016,04,20,08,45,16.40
2016,04,20,08,46,16.50
2016,04,20,08,47,16.50
2016,04,20,08,48,16.60
2016,04,20,08,49,16.70
2016,04,20,08,50,16.80
2016,04,20,08,51,16.90
2016,04,20,08,52,17.00
2016,04,20,08,53,17.10
2016,04,20,08,54,17.20
2016,04,20,08,55,17.30
2016,04,20,08,56,17.40
2016,04,20,08,57,17.50
2016,04,20,08,58,17.60
2016,04,20,08,59,17.60
2016,04,20,09,00,17.70
2016,04,20,09,01,17.80
2016,04,20,09,02,17.80
2016,04,20,09,03,17.80
2016,04,20,09,04,17.80
2016,04,20,09,05,17.80
2016,04,20,09,06,17.80
2016,04,20,09,07,17.70
2016,04,20,09,08,17.70
2016,04,20,09,09,17.70
2016,04,20,09,10,17.60
2016,04,20,09,11,17.60
2016,04,20,09,12,17.60
2016,04,20,09,13,17.50
2016,04,20,09,14,17.50
2016,04,20,09,15,17.50
2016,04,20,09,16,17.50
2016,04,20,09,17,17.50
2016,04,20,09,18,17.60
2016,04,20,09,19,17.60
2016,04,20,09,20,17.60
2016,04,20,09,21,17.70
2016,04,20,09,22,17.70
2016,04,20,09,23,17.70
2016,04,20,09,24,17.80
2016,04,20,09,25,17.80
2016,04,20,09,26,17.80
2016,04,20,09,27,17.90
2016,04,20,09,28,17.90
2016,04,20,09,29,18.00
2016,04,20,09,30,18.00
2016,04,20,09,31,18.10
2016,04,20,09,32,18.10
2016,04,20,09,33,18.10
2016,04,20,09,34,18.20
2016,04,20,09,35,18.20
2016,04,20,09,36,18.20
2016,04,20,09,37,18.20
2016,04,20,09,38,18.30
2016,04,20,09,39,18.30
2016,04,20,09,40,18.30
2016,04,20,09,41,18.30
2016,04,20,09,42,18.30
2016,04,20,09,43,18.30
2016,04,20,09,44,18.30
2016,04,20,09,45,18.40
2016,04,20,09,46,18.40
2016,04,20,09,47,18.40
2016,04,20,09,48,18.40
2016,04,20,09,49,18.50
2016,04,20,09,50,18.60
2016,04,20,09,51,18.60
2016,04,20,09,52,18.70
2016,04,20,09,53,18.70
2016,04,20,09,54,18.80
2016,04,20,09,55,18.90
2016,04,20,09,56,19.00
2016,04,20,09,57,19.10
2016,04,20,09,58,19.20
2016,04,20,09,59,19.30
2016,04,20,10,00,19.40
2016,04,20,10,01,19.50
2016,04,20,10,02,19.60
2016,04,20,10,03,19.70
2016,04,20,10,04,19.80
2016,04,20,10,05,19.80
2016,04,20,10,06,19.90
2016,04,20,10,07,20.00
2016,04,20,10,08,20.10
2016,04,20,10,09,20.10
2016,04,20,10,10,20.20
2016,04,20,10,11,20.30
2016,04,20,10,12,20.30
2016,04,20,10,13,20.40
2016,04,20,10,14,20.50
2016,04,20,10,15,20.50
2016,04,20,10,16,20.60
2016,04,20,10,17,20.70
2016,04,20,10,18,20.70
2016,04,20,10,19,20.70
2016,04,20,10,20,20.80
2016,04,20,10,21,20.80
2016,04,20,10,22,20.90
2016,04,20,10,23,20.90
2016,04,20,10,24,21.00
2016,04,20,10,25,21.10
2016,04,20,10,26,21.10
2016,04,20,10,27,21.20
2016,04,20,10,28,21.20
2016,04,20,10,29,21.30
2016,04,20,10,30,21.30
2016,04,20,10,31,21.30
2016,04,20,10,32,21.30
2016,04,20,10,33,21.40
2016,04,20,10,34,21.50
2016,04,20,10,35,21.60
2016,04,20,10,36,21.60
2016,04,20,10,37,21.70
2016,04,20,10,38,21.70
2016,04,20,10,39,21.80
2016,04,20,10,40,21.80
2016,04,20,10,41,21.80
2016,04,20,10,42,21.80
2016,04,20,10,43,21.80
2016,04,20,10,44,21.80
2016,04,20,10,45,21.90
2016,04,20,10,46,21.90
2016,04,20,10,47,21.80
2016,04,20,10,48,21.80
2016,04,20,10,49,21.80
2016,04,20,10,50,21.80
2016,04,20,10,51,21.90
2016,04,20,10,52,21.90
2016,04,20,10,53,21.90
2016,04,20,10,54,21.90
2016,04,20,10,55,22.00
2016,04,20,10,56,22.00
2016,04,20,10,57,22.00
2016,04,20,10,58,22.00
2016,04,20,10,59,22.00
2016,04,20,11,00,22.10
2016,04,20,11,01,22.10
2016,04,20,11,02,22.10
2016,04,20,11,03,22.10
2016,04,20,11,04,22.10
2016,04,20,11,05,22.10
2016,04,20,11,06,22.10
2016,04,20,11,07,22.20
2016,04,20,11,08,22.20
2016,04,20,11,09,22.30
2016,04,20,11,10,22.30
2016,04,20,11,11,22.40
2016,04,20,11,12,22.50
2016,04,20,11,13,22.50
2016,04,20,11,14,22.50
2016,04,20,11,15,22.60
2016,04,20,11,16,22.60
2016,04,20,11,17,22.70
2016,04,20,11,18,22.70
2016,04,20,11,19,22.70
2016,04,20,11,20,22.80
2016,04,20,11,21,22.80
2016,04,20,11,22,22.80
2016,04,20,11,23,22.80
2016,04,20,11,24,22.80
2016,04,20,11,25,22.90
2016,04,20,11,26,22.90
2016,04,20,11,27,22.90
2016,04,20,11,28,22.90
2016,04,20,11,29,22.90
2016,04,20,11,30,22.90
2016,04,20,11,31,22.90
2016,04,20,11,32,22.90
2016,04,20,11,33,22.90
2016,04,20,11,34,23.00
2016,04,20,11,35,23.00
2016,04,20,11,36,23.10
2016,04,20,11,37,23.10
2016,04,20,11,38,23.10
2016,04,20,11,39,23.10
2016,04,20,11,40,23.20
2016,04,20,11,41,23.30
2016,04,20,11,42,23.40
2016,04,20,11,43,23.40
2016,04,20,11,44,23.50
2016,04,20,11,45,23.50
2016,04,20,11,46,23.60
2016,04,20,11,47,23.60
2016,04,20,11,48,23.60
2016,04,20,11,49,23.60
2016,04,20,11,50,23.50
2016,04,20,11,51,23.40
2016,04,20,11,52,23.30
2016,04,20,11,53,23.20
2016,04,20,11,54,23.20
2016,04,20,11,55,23.10
2016,04,20,11,56,23.10
2016,04,20,11,57,23.10
2016,04,20,11,58,23.10
2016,04,20,11,59,23.20
2016,04,20,12,00,23.20
2016,04,20,12,01,23.20
2016,04,20,12,02,23.20
2016,04,20,12,03,23.30
2016,04,20,12,04,23.30
2016,04,20,12,05,23.40
2016,04,20,12,06,23.40
2016,04,20,12,07,23.40
2016,04,20,12,08,23.40
2016,04,20,12,09,23.40
2016,04,20,12,10,23.40
2016,04,20,12,11,23.50
2016,04,20,12,12,23.50
2016,04,20,12,13,23.60
2016,04,20,12,14,23.60
2016,04,20,12,15,23.60
2016,04,20,12,16,23.60
2016,04,20,12,17,23.60
2016,04,20,12,18,23.60
2016,04,20,12,19,23.60
2016,04,20,12,20,23.60
2016,04,20,12,21,23.70
2016,04,20,12,22,23.80
2016,04,20,12,23,23.80
2016,04,20,12,24,23.80
2016,04,20,12,25,23.80
2016,04,20,12,26,23.80
2016,04,20,12,27,23.80
2016,04,20,12,28,23.80
2016,04,20,12,29,23.80
2016,04,20,12,30,23.80
2016,04,20,12,31,23.80
2016,04,20,12,32,23.80
2016,04,20,12,33,23.80
2016,04,20,12,34,23.80
2016,04,20,12,35,23.80
2016,04,20,12,36,23.80
2016,04,20,12,37,23.80
2016,04,20,12,38,23.80
2016,04,20,12,39,23.80
2016,04,20,12,40,23.80
2016,04,20,12,41,23.90
2016,04,20,12,42,23.90
2016,04,20,12,43,24.00
2016,04,20,12,44,24.10
2016,04,20,12,45,24.10
2016,04,20,12,46,24.20
2016,04,20,12,47,24.20
2016,04,20,12,48,24.20
2016,04,20,12,49,24.30
2016,04,20,12,50,24.30
2016,04,20,12,51,24.30
2016,04,20,12,52,24.40
2016,04,20,12,53,24.40
2016,04,20,12,54,24.40
2016,04,20,12,55,24.40
2016,04,20,12,56,24.40
2016,04,20,12,57,24.40
2016,04,20,12,58,24.30
2016,04,20,12,59,24.30
2016,04,20,13,00,24.30
2016,04,20,13,01,24.30
2016,04,20,13,02,24.40
2016,04,20,13,03,24.40
2016,04,20,13,04,24.40
2016,04,20,13,05,24.50
2016,04,20,13,06,24.50
2016,04,20,13,07,24.60
2016,04,20,13,08,24.70
2016,04,20,13,09,24.80
2016,04,20,13,10,24.80
2016,04,20,13,11,24.90
2016,04,20,13,12,24.90
2016,04,20,13,13,24.90
2016,04,20,13,14,24.90
2016,04,20,13,15,24.90
2016,04,20,13,16,25.00
2016,04,20,13,17,25.00
2016,04,20,13,18,25.00
2016,04,20,13,19,25.00
2016,04,20,13,20,25.10
2016,04,20,13,21,25.10
2016,04,20,13,22,25.20
2016,04,20,13,23,25.20
2016,04,20,13,24,25.30
2016,04,20,13,25,25.30
2016,04,20,13,26,25.30
2016,04,20,13,27,25.30
2016,04,20,13,28,25.30
2016,04,20,13,29,25.40
2016,04,20,13,30,25.30
2016,04,20,13,31,25.30
2016,04,20,13,32,25.30
2016,04,20,13,33,25.30
2016,04,20,13,34,25.40
2016,04,20,13,35,25.30
2016,04,20,13,36,25.30
2016,04,20,13,37,25.40
2016,04,20,13,38,25.40
2016,04,20,13,39,25.50
2016,04,20,13,40,25.60
2016,04,20,13,41,25.60
2016,04,20,13,42,25.60
2016,04,20,13,43,25.70
2016,04,20,13,44,25.80
2016,04,20,13,45,25.80
2016,04,20,13,46,25.80
2016,04,20,13,47,25.80
2016,04,20,13,48,25.80
2016,04,20,13,49,25.80
2016,04,20,13,50,25.90
2016,04,20,13,51,25.90
2016,04,20,13,52,25.90
2016,04,20,13,53,25.90
2016,04,20,13,54,25.90
2016,04,20,13,55,25.80
2016,04,20,13,56,25.80
2016,04,20,13,57,25.80
2016,04,20,13,58,25.90
2016,04,20,13,59,25.90
2016,04,20,14,00,25.90
2016,04,20,14,01,25.90
2016,04,20,14,02,25.90
2016,04,20,14,03,25.90
2016,04,20,14,04,26.00
2016,04,20,14,05,26.10
2016,04,20,14,06,26.20
2016,04,20,14,07,26.30
2016,04,20,14,08,26.30
2016,04,20,14,09,26.30
2016,04,20,14,10,26.40
2016,04,20,14,11,26.40
2016,04,20,14,12,26.40
2016,04,20,14,13,26.50
2016,04,20,14,14,26.50
2016,04,20,14,15,26.50
2016,04,20,14,16,26.50
2016,04,20,14,17,26.40
2016,04,20,14,18,26.30
2016,04,20,14,19,26.30
2016,04,20,14,20,26.30
2016,04,20,14,21,26.30
2016,04,20,14,22,26.30
2016,04,20,14,23,26.30
2016,04,20,14,24,26.30
2016,04,20,14,25,26.20
2016,04,20,14,26,26.20
2016,04,20,14,27,26.30
2016,04,20,14,28,26.40
2016,04,20,14,29,26.50
2016,04,20,14,30,26.60
2016,04,20,14,31,26.70
2016,04,20,14,32,26.80
2016,04,20,14,33,26.90
2016,04,20,14,34,27.00
2016,04,20,14,35,27.00
2016,04,20,14,36,26.90
2016,04,20,14,37,26.80
2016,04,20,14,38,26.80
2016,04,20,14,39,26.80
2016,04,20,14,40,26.80
2016,04,20,14,41,26.80
2016,04,20,14,42,26.80
2016,04,20,14,43,26.80
2016,04,20,14,44,26.80
2016,04,20,14,45,26.80
2016,04,20,14,46,26.80
2016,04,20,14,47,26.80
2016,04,20,14,48,26.80
2016,04,20,14,49,26.80
2016,04,20,14,50,26.90
2016,04,20,14,51,26.90
2016,04,20,14,52,26.90
2016,04,20,14,53,26.90
2016,04,20,14,54,27.00
2016,04,20,14,55,27.00
2016,04,20,14,56,27.00
2016,04,20,14,57,27.00
2016,04,20,14,58,27.10
2016,04,20,14,59,27.10
2016,04,20,15,00,27.10
2016,04,20,15,01,27.20
2016,04,20,15,02,27.20
2016,04,20,15,03,27.20
2016,04,20,15,04,27.20
2016,04,20,15,05,27.20
2016,04,20,15,06,27.30
2016,04,20,15,07,27.30
2016,04,20,15,08,27.30
2016,04,20,15,09,27.20
2016,04,20,15,10,27.20
2016,04,20,15,11,27.20
2016,04,20,15,12,27.20
2016,04,20,15,13,27.20
2016,04,20,15,14,27.20
2016,04,20,15,15,27.20
2016,04,20,15,16,27.20
2016,04,20,15,17,27.20
2016,04,20,15,18,27.20
2016,04,20,15,19,27.10
2016,04,20,15,20,27.10
2016,04,20,15,21,27.10
2016,04,20,15,22,27.10
2016,04,20,15,23,27.10
2016,04,20,15,24,27.10
2016,04,20,15,25,27.10
2016,04,20,15,26,27.10
2016,04,20,15,27,27.10
2016,04,20,15,28,27.10
2016,04,20,15,29,27.10
2016,04,20,15,30,27.20
2016,04,20,15,31,27.20
2016,04,20,15,32,27.20
2016,04,20,15,33,27.30
2016,04,20,15,34,27.30
2016,04,20,15,35,27.30
2016,04,20,15,36,27.30
2016,04,20,15,37,27.40
2016,04,20,15,38,27.40
2016,04,20,15,39,27.40
2016,04,20,15,40,27.40
2016,04,20,15,41,27.40
2016,04,20,15,42,27.40
2016,04,20,15,43,27.40
2016,04,20,15,44,27.40
2016,04,20,15,45,27.40
2016,04,20,15,46,27.40
2016,04,20,15,47,27.30
2016,04,20,15,48,27.30
2016,04,20,15,49,27.30
2016,04,20,15,50,27.30
2016,04,20,15,51,27.30
2016,04,20,15,52,27.30
2016,04,20,15,53,27.20
2016,04,20,15,54,27.20
2016,04,20,15,55,27.20
2016,04,20,15,56,27.20
2016,04,20,15,57,27.20
2016,04,20,15,58,27.20
2016,04,20,15,59,27.30
2016,04,20,16,00,27.30
2016,04,20,16,01,27.20
2016,04,20,16,02,27.20
2016,04,20,16,03,27.20
2016,04,20,16,04,27.30
2016,04,20,16,05,27.30
2016,04,20,16,06,27.30
2016,04,20,16,07,27.30
2016,04,20,16,08,27.30
2016,04,20,16,09,27.30
2016,04,20,16,10,27.40
2016,04,20,16,11,27.40
2016,04,20,16,12,27.40
2016,04,20,16,13,27.40
2016,04,20,16,14,27.50
2016,04,20,16,15,27.50
2016,04,20,16,16,27.50
2016,04,20,16,17,27.50
2016,04,20,16,18,27.60
2016,04,20,16,19,27.60
2016,04,20,16,20,27.60
2016,04,20,16,21,27.70
2016,04,20,16,22,27.70
2016,04,20,16,23,27.70
2016,04,20,16,24,27.70
2016,04,20,16,25,27.70
2016,04,20,16,26,27.80
2016,04,20,16,27,27.80
2016,04,20,16,28,27.90
2016,04,20,16,29,27.90
2016,04,20,16,30,27.90
2016,04,20,16,31,28.00
2016,04,20,16,32,28.00
2016,04,20,16,33,28.10
2016,04,20,16,34,28.10
2016,04,20,16,35,28.10
2016,04,20,16,36,28.10
2016,04,20,16,37,28.10
2016,04,20,16,38,28.10
2016,04,20,16,39,28.10
2016,04,20,16,40,28.00
2016,04,20,16,41,28.00
2016,04,20,16,42,28.00
2016,04,20,16,43,28.10
2016,04,20,16,44,28.10
2016,04,20,16,45,28.10
2016,04,20,16,46,28.10
2016,04,20,16,47,28.00
2016,04,20,16,48,28.00
2016,04,20,16,49,28.10
2016,04,20,16,50,28.10
2016,04,20,16,51,28.20
2016,04,20,16,52,28.20
2016,04,20,16,53,28.30
2016,04,20,16,54,28.30
2016,04,20,16,55,28.30
2016,04,20,16,56,28.40
2016,04,20,16,57,28.40
2016,04,20,16,58,28.40
2016,04,20,16,59,28.40
2016,04,20,17,00,28.30
2016,04,20,17,01,28.30
2016,04,20,17,02,28.20
2016,04,20,17,03,28.10
2016,04,20,17,04,28.10
2016,04,20,17,05,28.00
2016,04,20,17,06,28.00
2016,04,20,17,07,28.00
2016,04,20,17,08,28.00
2016,04,20,17,09,28.00
2016,04,20,17,10,28.00
2016,04,20,17,11,28.00
2016,04,20,17,12,28.00
2016,04,20,17,13,28.00
2016,04,20,17,14,28.00
2016,04,20,17,15,28.00
2016,04,20,17,16,28.00
2016,04,20,17,17,28.10
2016,04,20,17,18,28.00
2016,04,20,17,19,28.00
2016,04,20,17,20,27.90
2016,04,20,17,21,27.90
2016,04,20,17,22,27.90